{"data":{"norad_id":45543,"intl_designator":"2020-025N","name":"STARLINK-1372","alt_names":[],"object_type":"PAYLOAD","status":"ACTIVE","operator":null,"country":"US","launch_date":"2020-04-22","launch_site_code":"AFETR","launch_vehicle":null,"mission":null,"orbit_class":"UNKNOWN","rcs_meters":null,"size_class":null,"mass_kg":null,"dimensions":null,"purposes":["comms"],"wikipedia_slug":null,"has_3d_model":false,"image_url":null,"decayed_at":null,"tle_current":{"epoch":"2026-09-20T00:30:35.998272Z","epoch_age_seconds":55833,"freshness":"FRESH","line1":"1 45543U 20025N   26263.02124998  .00023205  00000+0  46189-3 0  9996","line2":"2 45543  53.1547 266.9717 0003539  64.6729 295.4645 15.46838308354182","mean_motion":15.46838308,"eccentricity":0.0003539,"inclination_deg":53.1547,"raan_deg":266.9717,"arg_perigee_deg":64.6729,"mean_anomaly_deg":295.4645,"bstar":0.00046189,"rev_number":35418,"period_min":93.093117267173,"perigee_km":423.57394036441,"apogee_km":428.3898957346,"semimajor_km":6804.1189180495,"source":"CELESTRAK","updated_at":"2026-09-20T09:00:38.446440Z"}}}